Regional Weather Roundup
Issued by NWS

Home | Current Version | Previous Version | Graphics & Text | Print | Product List | Glossary On
Versions: 1 2 3 4 5 6 7 8 9 10 11 12 13 14 15 16 17 18 19 20 21 22 23 24 25 26 27 28 29 30 31 32 33 34 35 36 37 38 39 40 41 42 43 44 45 46 47 48 49 50
000
ASUS44 KMEG 162210
RWRTN
TENNESSEE HOURLY STATE WEATHER ROUNDUP
NATIONAL WEATHER SERVICE MEMPHIS TN
400 PM CST TUE JAN 16 2018

TNZ002-004-019-021-049-052-054-088>092-162300-
WEST TENNESSEE

CITY           SKY/WX    TMP DP  RH WIND       PRES   REMARKS
MEMPHIS INTL   FAIR      15   4  61 NW13      30.65R WCI   1
NWS MEMPHIS      N/A     15 N/A N/A MISG        N/A
JACKSON        FAIR      12   1  61 NW10      30.65R WCI  -1
DYERSBURG      FAIR      13  -1  54 N8        30.69R WCI   2
SOMERVILLE     SUNNY     14   0  52 N10       30.63R WCI   1
COVINGTON      SUNNY     10   0  61 N9        30.68R WCI  -2
UNION CITY     SUNNY      9  -4  56 NW7G13    30.67R WCI  -3
BOLIVAR        SUNNY     14   0  52 NW8       30.62R WCI   3
PARIS          SUNNY     10   0  61 VRB6      30.61R WCI   1
HUNTINGDON     SUNNY     12   0  57 NW5       30.62R WCI   4
LEXINGTON      SUNNY     16   1  53 NW7G13    30.60S WCI   6
SELMER         SUNNY     16   3  57 N7        30.59R WCI   6
SAVANNAH       SUNNY     18   5  57 NW8G15    30.59R WCI   7
$$

TNZ008-025-027-028-033-062-065-066-162300-
NORTH MIDDLE TENNESSEE

CITY           SKY/WX    TMP DP  RH WIND       PRES   REMARKS
NASHVILLE      FAIR      16   4  59 NW6       30.58S WCI   7
PORTLAND       CLEAR     10   1  67 NW5       30.56S WCI   2
CLARKSVILLE    FAIR      10  -2  58 N8        30.60S WCI  -2
SMYRNA         MOCLDY    14   6  70 N7        30.59S WCI   4
COOKEVILLE     CLOUDY    14   9  79 NW9       30.50S WCI   2
GALLATIN       CLEAR     14   1  57 NW8       30.61S WCI   3
CROSSVILLE     LGT SNOW  13   7  77 N9        30.41R WCI   1
$$

TNZ061-075-076-078-094-096-097-162300-
SOUTH MIDDLE TENNESSEE

CITY           SKY/WX    TMP DP  RH WIND       PRES   REMARKS
FAYETTEVILLE   CLOUDY    18  12  79 N12       30.50R WCI   5
TULLAHOMA      CLOUDY    14   9  79 N9        30.50R WCI   2
WINCHESTER     CLOUDY    16  10  79 N7        30.51R WCI   6
MCMINNVILLE    CLOUDY    14   9  79 N9        30.51R WCI   2
COLUMBIA       PTCLDY    16   7  67 VRB3      30.55R
SHELBYVILLE    MOCLDY    14   9  79 N10       30.54S WCI   1
$$

TNZ017-018-042-046-047-162300-
NORTHEAST TENNESSEE

CITY           SKY/WX    TMP DP  RH WIND       PRES   REMARKS
TRI CITIES     CLOUDY    40  29  64 NW12      30.28R WCI  33
ELIZABETHTON   CLOUDY    41  27  56 W7        30.28R
$$

TNZ012-013-036-069-073-074-162300-
CENTRAL EAST TENNESSEE

CITY           SKY/WX    TMP DP  RH WIND       PRES   REMARKS
KNOXVILLE      LGT SNOW  24  21  88 N6        30.41R FOG     WCI  17
OAK RIDGE      LGT SNOW  25  21  85 CALM      30.43R FOG
DOWNTOWN KNOXV CLOUDY    25  19  80 VRB6G13   30.43R WCI  18
GATLINBURG     MOCLDY    25  23  93 W6        30.40R FOG     WCI  18
MORRISTOWN     CLOUDY    25  23  93 NW8       30.35R FOG     WCI  16
JACKSBORO      CLOUDY    19  12  73 VRB5      30.46S HAZE    WCI  13
$$

TNZ083-085-099-162300-
SOUTHEAST TENNESSEE

CITY           SKY/WX    TMP DP  RH WIND       PRES   REMARKS
CHATTANOOGA    LGT SNOW  25  18  74 W8        30.44R FOG     WCI  16
DAYTON         CLOUDY    23  19  86 NW5       30.46R FOG     WCI  17
$$

SKY/WX REPORTED AS FAIR MEANS FEW OR NO CLOUDS BELOW
12 THOUSAND FEET.





USA.gov is the U.S. government's official web portal to all federal, state and local government web resources and services.